Meteo pe oră la Bolshoe Kadryakovo

Astăzi, 9 Mai, Duminică

Timp Temperatura Precipitaţii Vânt Presiune Umiditate
00:00 +11°C° 0 mm 3 m/s 752 mmHg 78%
01:00 +10°C° 0 mm 3 m/s 752 mmHg 78%
02:00 +10°C° 0 mm 3 m/s 751 mmHg 78%
03:00 +10°C° 0 mm 3 m/s 751 mmHg 77%
04:00 +11°C° 0 mm 3 m/s 751 mmHg 76%
05:00 +11°C° 0 mm 4 m/s 751 mmHg 74%
06:00 +12°C° 0 mm 4 m/s 751 mmHg 72%
07:00 +14°C° 0 mm 4 m/s 751 mmHg 65%
08:00 +17°C° 0 mm 4 m/s 751 mmHg 59%
09:00 +19°C° 0 mm 5 m/s 751 mmHg 52%
10:00 +20°C° 0 mm 5 m/s 751 mmHg 49%
11:00 +21°C° 0 mm 5 m/s 751 mmHg 46%
12:00 +22°C° 0 mm 6 m/s 751 mmHg 43%
13:00 +22°C° 0 mm 5 m/s 751 mmHg 43%
14:00 +22°C° 0 mm 5 m/s 751 mmHg 43%
15:00 +23°C° 0 mm 4 m/s 751 mmHg 43%
16:00 +21°C° 0 mm 4 m/s 751 mmHg 49%
17:00 +20°C° 0 mm 4 m/s 751 mmHg 56%
18:00 +19°C° 0 mm 3 m/s 751 mmHg 62%
19:00 +18°C° 0 mm 3 m/s 752 mmHg 64%
20:00 +17°C° 0 mm 3 m/s 752 mmHg 65%
21:00 +16°C° 0 mm 3 m/s 752 mmHg 67%
22:00 +16°C° 0 mm 3 m/s 752 mmHg 67%
23:00 +16°C° 0 mm 3 m/s 752 mmHg 68%

Mâine, 10 Mai, Luni

Timp Temperatura Precipitaţii Vânt Presiune Umiditate
00:00 +14°C° 0 mm 3 m/s 752 mmHg 69%
01:00 +14°C° 0.1 mm 3 m/s 753 mmHg 69%
02:00 +15°C° 0.1 mm 2 m/s 753 mmHg 70%
03:00 +15°C° 0.1 mm 2 m/s 753 mmHg 70%
04:00 +15°C° 0.1 mm 2 m/s 754 mmHg 70%
05:00 +16°C° 0.1 mm 2 m/s 754 mmHg 70%
06:00 +16°C° 0.1 mm 1 m/s 754 mmHg 69%
07:00 +18°C° 0 mm 1 m/s 755 mmHg 65%
08:00 +18°C° 0 mm 2 m/s 755 mmHg 61%
09:00 +19°C° 0 mm 2 m/s 755 mmHg 57%
10:00 +20°C° 0 mm 2 m/s 755 mmHg 54%
11:00 +21°C° 0 mm 2 m/s 756 mmHg 51%
12:00 +22°C° 0 mm 3 m/s 756 mmHg 48%
13:00 +23°C° 0.1 mm 2 m/s 756 mmHg 48%
14:00 +23°C° 0.1 mm 2 m/s 756 mmHg 48%
15:00 +23°C° 0.1 mm 2 m/s 756 mmHg 49%
16:00 +20°C° 0.3 mm 4 m/s 757 mmHg 61%
17:00 +17°C° 0.3 mm 5 m/s 757 mmHg 73%
18:00 +14°C° 0.3 mm 7 m/s 757 mmHg 85%
19:00 +14°C° 0.2 mm 6 m/s 758 mmHg 87%
20:00 +13°C° 0.2 mm 6 m/s 759 mmHg 89%
21:00 +12°C° 0.2 mm 5 m/s 759 mmHg 91%
22:00 +12°C° 0 mm 5 m/s 759 mmHg 91%
23:00 +10°C° 0 mm 5 m/s 759 mmHg 92%

Poimâine, 11 Mai, Marţi

Timp Temperatura Precipitaţii Vânt Presiune Umiditate
00:00 +9°C° 0 mm 5 m/s 760 mmHg 93%
01:00 +9°C° 0 mm 5 m/s 760 mmHg 93%
02:00 +8°C° 0 mm 5 m/s 760 mmHg 93%
03:00 +8°C° 0 mm 5 m/s 761 mmHg 93%
04:00 +8°C° 0 mm 5 m/s 761 mmHg 91%
05:00 +8°C° 0 mm 5 m/s 761 mmHg 90%
06:00 +9°C° 0 mm 5 m/s 762 mmHg 88%
07:00 +10°C° 0 mm 5 m/s 762 mmHg 84%
08:00 +12°C° 0 mm 5 m/s 762 mmHg 79%
09:00 +13°C° 0 mm 4 m/s 762 mmHg 75%
10:00 +15°C° 0 mm 4 m/s 762 mmHg 71%
11:00 +17°C° 0 mm 4 m/s 763 mmHg 66%
12:00 +18°C° 0 mm 3 m/s 763 mmHg 62%
13:00 +19°C° 0 mm 3 m/s 762 mmHg 60%
14:00 +20°C° 0 mm 3 m/s 762 mmHg 57%
15:00 +20°C° 0 mm 3 m/s 762 mmHg 55%
16:00 +20°C° 0 mm 3 m/s 762 mmHg 57%
17:00 +19°C° 0 mm 3 m/s 762 mmHg 60%
18:00 +18°C° 0 mm 3 m/s 763 mmHg 63%
19:00 +17°C° 0 mm 3 m/s 763 mmHg 65%
20:00 +14°C° 0 mm 3 m/s 763 mmHg 68%
21:00 +13°C° 0 mm 3 m/s 763 mmHg 71%
22:00 +12°C° 0 mm 3 m/s 763 mmHg 73%
23:00 +12°C° 0 mm 3 m/s 763 mmHg 76%

12 Mai, Miercuri

Timp Temperatura Precipitaţii Vânt Presiune Umiditate
00:00 +11°C° 0 mm 3 m/s 764 mmHg 78%
01:00 +11°C° 0 mm 3 m/s 764 mmHg 79%
02:00 +10°C° 0 mm 3 m/s 764 mmHg 80%
03:00 +10°C° 0 mm 3 m/s 764 mmHg 81%
04:00 +11°C° 0 mm 3 m/s 764 mmHg 79%
05:00 +11°C° 0 mm 4 m/s 764 mmHg 77%
06:00 +12°C° 0 mm 4 m/s 764 mmHg 75%
07:00 +14°C° 0 mm 4 m/s 764 mmHg 69%
08:00 +15°C° 0 mm 4 m/s 764 mmHg 62%
09:00 +18°C° 0 mm 4 m/s 764 mmHg 56%
10:00 +19°C° 0 mm 4 m/s 764 mmHg 51%
11:00 +20°C° 0 mm 4 m/s 764 mmHg 46%
12:00 +21°C° 0 mm 4 m/s 764 mmHg 42%
13:00 +21°C° 0 mm 3 m/s 764 mmHg 40%
14:00 +22°C° 0 mm 3 m/s 764 mmHg 38%
15:00 +22°C° 0 mm 3 m/s 763 mmHg 37%
16:00 +21°C° 0 mm 3 m/s 763 mmHg 42%
17:00 +20°C° 0 mm 3 m/s 763 mmHg 48%
18:00 +19°C° 0 mm 3 m/s 763 mmHg 53%
19:00 +18°C° 0 mm 3 m/s 763 mmHg 56%
20:00 +16°C° 0 mm 3 m/s 763 mmHg 58%
21:00 +14°C° 0 mm 3 m/s 763 mmHg 60%
22:00 +13°C° 0 mm 3 m/s 763 mmHg 61%
23:00 +13°C° 0 mm 3 m/s 763 mmHg 61%

13 Mai, Joi

Timp Temperatura Precipitaţii Vânt Presiune Umiditate
00:00 +12°C° 0 mm 3 m/s 763 mmHg 62%
01:00 +12°C° 0 mm 3 m/s 763 mmHg 62%
02:00 +12°C° 0 mm 3 m/s 763 mmHg 63%
03:00 +12°C° 0 mm 2 m/s 763 mmHg 64%
04:00 +13°C° 0 mm 2 m/s 763 mmHg 64%
05:00 +13°C° 0 mm 3 m/s 763 mmHg 65%
06:00 +14°C° 0 mm 3 m/s 763 mmHg 65%
07:00 +17°C° 0 mm 3 m/s 763 mmHg 61%
08:00 +19°C° 0 mm 3 m/s 762 mmHg 56%
09:00 +20°C° 0 mm 4 m/s 762 mmHg 52%
10:00 +21°C° 0 mm 4 m/s 762 mmHg 49%
11:00 +24°C° 0 mm 3 m/s 762 mmHg 45%
12:00 +25°C° 0 mm 3 m/s 762 mmHg 42%
13:00 +25°C° 0 mm 3 m/s 762 mmHg 41%
14:00 +25°C° 0 mm 3 m/s 761 mmHg 40%
15:00 +26°C° 0 mm 3 m/s 761 mmHg 38%
16:00 +25°C° 0 mm 2 m/s 761 mmHg 43%
17:00 +24°C° 0 mm 2 m/s 761 mmHg 48%
18:00 +23°C° 0 mm 1 m/s 761 mmHg 54%
19:00 +21°C° 0 mm 2 m/s 761 mmHg 57%
20:00 +20°C° 0 mm 2 m/s 761 mmHg 60%
21:00 +18°C° 0 mm 2 m/s 761 mmHg 63%
22:00 +18°C° 0 mm 2 m/s 761 mmHg 65%
23:00 +17°C° 0 mm 2 m/s 761 mmHg 67%

14 Mai, Vineri

Timp Temperatura Precipitaţii Vânt Presiune Umiditate
00:00 +17°C° 0 mm 2 m/s 761 mmHg 69%
01:00 +16°C° 0 mm 2 m/s 761 mmHg 69%
02:00 +16°C° 0 mm 2 m/s 761 mmHg 69%
03:00 +16°C° 0 mm 1 m/s 761 mmHg 69%
04:00 +18°C° 0 mm 1 m/s 761 mmHg 67%
05:00 +19°C° 0 mm 1 m/s 761 mmHg 66%
06:00 +18°C° 0 mm 2 m/s 761 mmHg 65%
07:00 +20°C° 0 mm 2 m/s 761 mmHg 60%
08:00 +23°C° 0 mm 2 m/s 761 mmHg 55%
09:00 +24°C° 0 mm 3 m/s 761 mmHg 50%
10:00 +25°C° 0 mm 3 m/s 761 mmHg 46%
11:00 +26°C° 0 mm 3 m/s 760 mmHg 42%
12:00 +27°C° 0 mm 4 m/s 760 mmHg 38%
13:00 +27°C° 0 mm 4 m/s 760 mmHg 37%
14:00 +27°C° 0 mm 4 m/s 760 mmHg 36%
15:00 +27°C° 0 mm 4 m/s 760 mmHg 35%
16:00 +26°C° 0 mm 3 m/s 759 mmHg 41%
17:00 +25°C° 0 mm 2 m/s 759 mmHg 47%
18:00 +24°C° 0 mm 2 m/s 759 mmHg 53%
19:00 +23°C° 0 mm 2 m/s 759 mmHg 55%
20:00 +21°C° 0 mm 2 m/s 759 mmHg 58%
21:00 +19°C° 0 mm 2 m/s 759 mmHg 61%
22:00 +19°C° 0 mm 2 m/s 758 mmHg 63%
23:00 +18°C° 0 mm 2 m/s 758 mmHg 65%
Arată mai mult

Formular de consimțământ

Meteoprog și furnizorii noștri de servicii pot stoca și accesa date personale, precum cookies, identificatori de dispozitiv sau alte tehnologii similare pe dispozitivul dumneavoastră și procesa astfel de date pentru a personaliza conținutul și reclamele, dar și pentru a oferi caracteristici de social media și pentru a analiza traficul.

  • Stocarea și/sau accesarea informațiilor pe dispozitivul dumneavoastră

    Cookies, identificatori de dispozitiv sau alte informații pot fi stocate sau accesate pe dispozitiv în scopurile indicate mai sus.

  • Reclame și conținut personalizat, evaluarea reclamelor și a conținutului, informații despre audiențe și dezvoltarea produselor

    Reclamele și conținutul pot fi personalizate pe baza unui profil. Pot fi adăugate date suplimentare pentru a personaliza mai bine reclamele și conținutul. Performanța reclamelor și conținutului poate fi măsurată. Pot fi obținute informații despre utilizatorii care au văzut reclamele și conținutul. Aceste date pot fi utilizate pentru a dezvolta sau îmbunătăți experiența utilizatorilor, sistemele și software-ul.

Dând clic pe ‘Sunt de acord’, permiteți utilizarea cookie-urilor menționate, a identificatorilor de dispozitiv, balizelor web sau altor tehnologii similare. Setările pot fi modificate din browser-ul dispozitivului dumneavoastră.

În anumite scopuri, interesele legitime pot prima asupra consimțământului. Puteți citi mai multe informații în acest sens în Politica privind Confidențialitatea Datelor și Cookie.